| time (UTC) | temp F | wind direction | speed knots | gust knots | rain 1hr in | rain 24hr in | rain mn in | humidity % | barometer mb |
| 20260508091053 | 52 | 266 | 0.0 | 0.0 | 0.00 | 0.00 | 0.00 | 78 | 1004.9 |
| 20260508090545 | 52 | 266 | 0.0 | 0.0 | 0.00 | 0.00 | 0.00 | 78 | 1004.9 |
| 20260508090003 | 52 | 266 | 0.0 | 0.0 | 0.00 | 0.00 | 0.00 | 78 | 1004.8 |
| 20260508085552 | 52 | 266 | 0.0 | 0.0 | 0.00 | 0.00 | 0.00 | 78 | 1004.8 |
| 20260508085042 | 52 | 266 | 0.0 | 0.0 | 0.00 | 0.00 | 0.00 | 78 | 1004.8 |
| 20260508084602 | 52 | 266 | 0.0 | 0.0 | 0.00 | 0.00 | 0.00 | 78 | 1004.8 |
| 20260508084051 | 53 | 266 | 0.0 | 0.0 | 0.00 | 0.00 | 0.00 | 78 | 1004.7 |
| 20260508083538 | 53 | 266 | 0.0 | 0.0 | 0.00 | 0.00 | 0.00 | 78 | 1004.6 |
| 20260508083016 | 53 | 266 | 0.0 | 0.0 | 0.00 | 0.00 | 0.00 | 78 | 1004.6 |
| 20260508082557 | 53 | 266 | 0.0 | 0.0 | 0.00 | 0.00 | 0.00 | 78 | 1004.6 |
| 20260508082049 | 53 | 266 | 0.0 | 0.0 | 0.00 | 0.00 | 0.00 | 78 | 1004.6 |
| 20260508081509 | 53 | 266 | 0.0 | 0.0 | 0.00 | 0.00 | 0.00 | 78 | 1004.6 |
| 20260508081057 | 53 | 266 | 0.0 | 0.0 | 0.00 | 0.00 | 0.00 | 78 | 1004.5 |
| 20260508080546 | 53 | 266 | 0.0 | 0.0 | 0.00 | 0.00 | 0.00 | 77 | 1004.6 |
| 20260508080013 | 53 | 266 | 0.0 | 0.0 | 0.00 | 0.00 | 0.00 | 77 | 1004.5 |
| 20260508075601 | 53 | 266 | 0.0 | 0.0 | 0.00 | 0.00 | 0.00 | 77 | 1004.5 |
| 20260508075049 | 53 | 266 | 0.0 | 0.0 | 0.00 | 0.00 | 0.00 | 77 | 1004.5 |
| 20260508074510 | 54 | 266 | 0.0 | 1.7 | 0.00 | 0.00 | 0.00 | 77 | 1004.5 |
| 20260508074101 | 54 | 266 | 0.0 | 1.7 | 0.00 | 0.00 | 0.00 | 76 | 1004.5 |
| 20260508073549 | 54 | 266 | 0.9 | 1.7 | 0.00 | 0.00 | 0.00 | 76 | 1004.5 |
| 20260508073005 | 54 | 266 | 0.9 | 1.7 | 0.00 | 0.00 | 0.00 | 76 | 1004.4 |
| 20260508072556 | 54 | 266 | 0.9 | 1.7 | 0.00 | 0.00 | 0.00 | 76 | 1004.4 |
| 20260508072043 | 54 | 266 | 0.9 | 1.7 | 0.00 | 0.00 | 0.00 | 75 | 1004.5 |
| 20260508071513 | 54 | 266 | 0.9 | 1.7 | 0.00 | 0.00 | 0.00 | 75 | 1004.4 |
| 20260508071002 | 54 | 266 | 0.9 | 1.7 | 0.00 | 0.00 | 0.00 | 75 | 1004.4 |
| 20260508070552 | 55 | 266 | 0.9 | 2.6 | 0.00 | 0.00 | 0.00 | 74 | 1004.4 |
| 20260508070010 | 55 | 266 | 0.9 | 2.6 | 0.00 | 0.00 | 0.00 | 74 | 1004.4 |
| 20260508065559 | 55 | 266 | 1.7 | 2.6 | 0.00 | 0.00 | 0.00 | 74 | 1004.4 |
| 20260508065046 | 55 | 266 | 0.9 | 2.6 | 0.00 | 0.00 | 0.00 | 74 | 1004.4 |
| 20260508064512 | 55 | 266 | 1.7 | 2.6 | 0.00 | 0.00 | 0.00 | 73 | 1004.4 |
| 20260508064057 | 55 | 266 | 1.7 | 2.6 | 0.00 | 0.00 | 0.00 | 73 | 1004.4 |
| 20260508063547 | 56 | 266 | 0.9 | 2.6 | 0.00 | 0.00 | 0.00 | 73 | 1004.4 |
| 20260508063007 | 56 | 266 | 0.9 | 2.6 | 0.00 | 0.00 | 0.00 | 73 | 1004.5 |
| 20260508062558 | 56 | 266 | 0.9 | 2.6 | 0.00 | 0.00 | 0.00 | 73 | 1004.5 |
| 20260508062046 | 56 | 266 | 0.9 | 2.6 | 0.00 | 0.00 | 0.00 | 73 | 1004.6 |
| 20260508061505 | 56 | 267 | 1.7 | 2.6 | 0.00 | 0.00 | 0.00 | 73 | 1004.4 |
| 20260508061056 | 56 | 267 | 0.9 | 2.6 | 0.00 | 0.00 | 0.00 | 73 | 1004.5 |
| 20260508060546 | 56 | 267 | 0.9 | 1.7 | 0.00 | 0.00 | 0.00 | 72 | 1004.6 |
| 20260508060002 | 57 | 267 | 0.0 | 2.6 | 0.00 | 0.00 | 0.00 | 72 | 1004.5 |
| 20260508055553 | 57 | 267 | 0.9 | 2.6 | 0.00 | 0.00 | 0.00 | 72 | 1004.6 |
| 20260508055041 | 57 | 266 | 0.9 | 1.7 | 0.00 | 0.00 | 0.00 | 72 | 1004.6 |
| 20260508054503 | 57 | 266 | 0.9 | 1.7 | 0.00 | 0.00 | 0.00 | 72 | 1004.5 |
| 20260508054055 | 57 | 266 | 0.9 | 4.3 | 0.00 | 0.00 | 0.00 | 72 | 1004.5 |
| 20260508053542 | 57 | 266 | 0.9 | 4.3 | 0.00 | 0.00 | 0.00 | 72 | 1004.7 |
| 20260508053004 | 57 | 261 | 0.9 | 3.5 | 0.00 | 0.00 | 0.00 | 72 | 1004.4 |
| 20260508052552 | 57 | 235 | 0.9 | 3.5 | 0.00 | 0.00 | 0.00 | 72 | 1004.5 |
| 20260508052042 | 57 | 311 | 0.9 | 2.6 | 0.00 | 0.00 | 0.00 | 72 | 1004.5 |
| 20260508051504 | 57 | 296 | 0.9 | 2.6 | 0.00 | 0.00 | 0.00 | 72 | 1004.5 |
| 20260508051053 | 57 | 296 | 0.9 | 6.1 | 0.00 | 0.00 | 0.00 | 72 | 1004.4 |
| 20260508050542 | 58 | 281 | 1.7 | 6.1 | 0.00 | 0.00 | 0.00 | 73 | 1004.5 |
| 20260508045549 | 58 | 255 | 0.9 | 3.5 | 0.00 | 0.00 | 0.00 | 73 | 1004.5 |
| 20260508045040 | 58 | 226 | 0.9 | 2.6 | 0.00 | 0.00 | 0.00 | 73 | 1004.5 |
| 20260508044605 | 58 | 226 | 0.9 | 3.5 | 0.00 | 0.00 | 0.00 | 74 | 1004.5 |
| 20260508044050 | 59 | 226 | 1.7 | 3.5 | 0.00 | 0.00 | 0.00 | 74 | 1004.5 |
| 20260508043537 | 59 | 255 | 0.9 | 3.5 | 0.00 | 0.00 | 0.00 | 74 | 1004.6 |
| 20260508043007 | 59 | 269 | 1.7 | 3.5 | 0.00 | 0.00 | 0.00 | 73 | 1004.5 |
| 20260508042558 | 60 | 248 | 0.9 | 3.5 | 0.00 | 0.00 | 0.00 | 73 | 1004.5 |
| 20260508042046 | 60 | 244 | 1.7 | 3.5 | 0.00 | 0.00 | 0.00 | 72 | 1004.4 |
| 20260508041509 | 61 | 275 | 1.7 | 3.5 | 0.00 | 0.00 | 0.00 | 71 | 1004.3 |
| 20260508041056 | 61 | 13 | 0.0 | 0.0 | 0.00 | 0.00 | 0.00 | 71 | 1004.3 |
| 20260508040545 | 61 | 13 | 0.0 | 0.0 | 0.00 | 0.00 | 0.00 | 69 | 1004.2 |
| 20260508040004 | 61 | 13 | 0.0 | 0.0 | 0.00 | 0.00 | 0.00 | 68 | 1004.0 |
| 20260508035555 | 62 | 13 | 0.0 | 0.0 | 0.00 | 0.00 | 0.00 | 68 | 1004.0 |
| 20260508035042 | 62 | 13 | 0.0 | 0.0 | 0.00 | 0.00 | 0.00 | 68 | 1003.9 |
| 20260508034607 | 62 | 13 | 0.0 | 0.0 | 0.00 | 0.00 | 0.00 | 68 | 1003.9 |
| 20260508034048 | 62 | 13 | 0.0 | 0.0 | 0.00 | 0.00 | 0.00 | 68 | 1003.9 |
| 20260508033535 | 63 | 13 | 0.0 | 0.0 | 0.00 | 0.00 | 0.00 | 68 | 1003.9 |
| 20260508033058 | 63 | 13 | 0.0 | 0.0 | 0.00 | 0.00 | 0.00 | 67 | 1003.8 |
| 20260508032547 | 63 | 13 | 0.0 | 0.0 | 0.00 | 0.00 | 0.00 | 66 | 1003.8 |
| 20260508032035 | 63 | 13 | 0.0 | 0.0 | 0.00 | 0.00 | 0.00 | 66 | 1003.8 |
| 20260508031604 | 63 | 13 | 0.0 | 0.0 | 0.00 | 0.00 | 0.00 | 65 | 1003.7 |
| 20260508031046 | 64 | 13 | 0.0 | 0.0 | 0.00 | 0.00 | 0.00 | 65 | 1003.8 |
| 20260508030535 | 64 | 13 | 0.0 | 0.0 | 0.00 | 0.00 | 0.00 | 65 | 1003.7 |
| 20260508025544 | 64 | 13 | 0.0 | 0.0 | 0.00 | 0.00 | 0.00 | 65 | 1003.6 |
| 20260508025032 | 64 | 13 | 0.0 | 0.0 | 0.00 | 0.00 | 0.00 | 65 | 1003.6 |
| 20260508024505 | 64 | 13 | 0.0 | 0.0 | 0.00 | 0.00 | 0.00 | 64 | 1003.7 |
| 20260508024053 | 65 | 13 | 0.0 | 0.0 | 0.00 | 0.00 | 0.00 | 64 | 1003.6 |
| 20260508023542 | 65 | 13 | 0.0 | 0.0 | 0.00 | 0.00 | 0.00 | 62 | 1003.8 |
| 20260508023002 | 65 | 13 | 0.0 | 0.9 | 0.00 | 0.00 | 0.00 | 61 | 1003.7 |
| 20260508022553 | 65 | 13 | 0.0 | 0.9 | 0.00 | 0.00 | 0.00 | 61 | 1003.7 |
| 20260508022041 | 66 | 13 | 0.0 | 0.9 | 0.00 | 0.00 | 0.00 | 61 | 1003.6 |
| 20260508021510 | 66 | 13 | 0.0 | 2.6 | 0.00 | 0.00 | 0.00 | 61 | 1003.6 |
| 20260508021100 | 66 | 13 | 0.9 | 2.6 | 0.00 | 0.00 | 0.00 | 60 | 1003.7 |
| 20260508020551 | 66 | 13 | 0.0 | 1.7 | 0.00 | 0.00 | 0.00 | 60 | 1003.7 |
| 20260508020007 | 66 | 13 | 0.0 | 1.7 | 0.00 | 0.00 | 0.00 | 60 | 1003.7 |
| 20260508015558 | 67 | 5 | 0.0 | 0.9 | 0.00 | 0.00 | 0.00 | 60 | 1003.7 |
| 20260508015047 | 67 | 5 | 0.0 | 1.7 | 0.00 | 0.00 | 0.00 | 59 | 1003.6 |
| 20260508014512 | 67 | 19 | 0.0 | 0.9 | 0.00 | 0.00 | 0.00 | 59 | 1003.7 |
| 20260508014101 | 67 | 25 | 0.0 | 2.6 | 0.00 | 0.00 | 0.00 | 57 | 1003.7 |
| 20260508013546 | 68 | 28 | 0.9 | 2.6 | 0.00 | 0.00 | 0.00 | 58 | 1003.8 |
| 20260508013007 | 68 | 15 | 0.9 | 2.6 | 0.00 | 0.00 | 0.00 | 57 | 1003.8 |
| 20260508012601 | 68 | 360 | 0.9 | 2.6 | 0.00 | 0.00 | 0.00 | 56 | 1003.9 |
| 20260508012046 | 69 | 290 | 0.0 | 2.6 | 0.00 | 0.00 | 0.00 | 56 | 1003.9 |
| 20260508011506 | 69 | 282 | 0.9 | 3.5 | 0.00 | 0.00 | 0.00 | 55 | 1004.0 |
| 20260508011058 | 69 | 266 | 0.9 | 3.5 | 0.00 | 0.00 | 0.00 | 51 | 1003.9 |
| 20260508010545 | 69 | 66 | 0.0 | 0.0 | 0.00 | 0.00 | 0.00 | 53 | 1004.0 |
| 20260508010006 | 70 | 66 | 0.0 | 2.6 | 0.00 | 0.00 | 0.00 | 55 | 1004.1 |
| 20260508005558 | 70 | 65 | 0.0 | 2.6 | 0.00 | 0.00 | 0.00 | 52 | 1004.0 |
| 20260508005043 | 69 | 80 | 0.9 | 2.6 | 0.00 | 0.00 | 0.00 | 54 | 1004.1 |
| 20260508004503 | 69 | 90 | 0.0 | 3.5 | 0.00 | 0.00 | 0.00 | 53 | 1004.1 |
| 20260508004053 | 69 | 11 | 0.9 | 3.5 | 0.00 | 0.00 | 0.00 | 54 | 1004.1 |
| 20260508003540 | 69 | 22 | 1.7 | 3.5 | 0.00 | 0.00 | 0.00 | 54 | 1004.2 |
| 20260508003001 | 69 | 59 | 0.9 | 3.5 | 0.00 | 0.00 | 0.00 | 53 | 1004.2 |
| 20260508002551 | 69 | 94 | 0.0 | 3.5 | 0.00 | 0.00 | 0.00 | 54 | 1004.3 |
| 20260508002040 | 69 | 317 | 0.9 | 3.5 | 0.00 | 0.00 | 0.00 | 54 | 1004.3 |
| 20260508001604 | 69 | 132 | 0.0 | 3.5 | 0.00 | 0.00 | 0.00 | 56 | 1004.3 |
| 20260508001051 | 69 | 327 | 0.9 | 3.5 | 0.00 | 0.00 | 0.00 | 55 | 1004.3 |
| 20260508000538 | 69 | 355 | 0.9 | 3.5 | 0.00 | 0.00 | 0.00 | 56 | 1004.4 |
| 20260508000007 | 69 | 41 | 0.0 | 4.3 | 0.00 | 0.00 | 0.00 | 54 | 1004.4 |
| 20260507235558 | 69 | 46 | 0.9 | 4.3 | 0.00 | 0.00 | 0.00 | 55 | 1004.4 |
| 20260507235046 | 69 | 121 | 0.9 | 5.2 | 0.00 | 0.00 | 0.00 | 54 | 1004.6 |
| 20260507234505 | 69 | 63 | 1.7 | 5.2 | 0.00 | 0.00 | 0.00 | 54 | 1004.6 |
| 20260507234055 | 69 | 139 | 1.7 | 5.2 | 0.00 | 0.00 | 0.00 | 54 | 1004.6 |
| 20260507233544 | 69 | 34 | 1.7 | 4.3 | 0.00 | 0.00 | 0.00 | 56 | 1004.7 |
| 20260507233005 | 68 | 44 | 1.7 | 5.2 | 0.00 | 0.00 | 0.00 | 59 | 1004.7 |
| 20260507232556 | 68 | 25 | 1.7 | 5.2 | 0.00 | 0.00 | 0.00 | 57 | 1004.8 |
| 20260507232044 | 68 | 103 | 1.7 | 4.3 | 0.00 | 0.00 | 0.00 | 56 | 1004.8 |
| 20260507231503 | 68 | 18 | 0.9 | 3.5 | 0.00 | 0.00 | 0.00 | 57 | 1005.0 |
| 20260507231054 | 68 | 96 | 0.0 | 4.3 | 0.00 | 0.00 | 0.00 | 58 | 1005.0 |
| 20260507230542 | 68 | 73 | 1.7 | 4.3 | 0.00 | 0.00 | 0.00 | 57 | 1005.1 |
| 20260507230002 | 68 | 26 | 1.7 | 4.3 | 0.00 | 0.00 | 0.00 | 56 | 1005.2 |
| 20260507225552 | 68 | 113 | 0.9 | 4.3 | 0.00 | 0.00 | 0.00 | 55 | 1005.2 |
| 20260507225039 | 68 | 333 | 1.7 | 4.3 | 0.00 | 0.00 | 0.00 | 55 | 1005.4 |
| 20260507224602 | 68 | 338 | 1.7 | 4.3 | 0.00 | 0.00 | 0.00 | 54 | 1005.4 |
| 20260507224051 | 68 | 47 | 1.7 | 5.2 | 0.00 | 0.00 | 0.00 | 56 | 1005.4 |
| 20260507223539 | 67 | 51 | 1.7 | 7.0 | 0.00 | 0.00 | 0.00 | 56 | 1005.6 |
| 20260507223001 | 68 | 326 | 3.5 | 7.0 | 0.00 | 0.00 | 0.00 | 54 | 1005.6 |
| 20260507222551 | 68 | 41 | 1.7 | 4.3 | 0.00 | 0.00 | 0.00 | 55 | 1005.6 |
| 20260507222038 | 68 | 55 | 1.7 | 6.1 | 0.00 | 0.00 | 0.00 | 53 | 1005.7 |
| 20260507221508 | 68 | 14 | 0.9 | 6.1 | 0.00 | 0.00 | 0.00 | 53 | 1005.8 |
| 20260507221059 | 68 | 350 | 0.9 | 4.3 | 0.00 | 0.00 | 0.00 | 56 | 1005.8 |
| 20260507220547 | 67 | 81 | 1.7 | 4.3 | 0.00 | 0.00 | 0.00 | 55 | 1006.0 |
| 20260507220005 | 67 | 271 | 1.7 | 5.2 | 0.00 | 0.00 | 0.00 | 54 | 1006.0 |
| 20260507215557 | 67 | 292 | 2.6 | 5.2 | 0.00 | 0.00 | 0.00 | 54 | 1006.0 |
| 20260507215045 | 66 | 28 | 0.0 | 2.6 | 0.00 | 0.00 | 0.00 | 56 | 1006.0 |
| 20260507214515 | 66 | 48 | 1.7 | 3.5 | 0.00 | 0.00 | 0.00 | 59 | 1006.0 |
| 20260507214003 | 65 | 49 | 0.9 | 5.2 | 0.00 | 0.00 | 0.00 | 56 | 1006.5 |
| 20260507213553 | 66 | 53 | 2.6 | 5.2 | 0.00 | 0.00 | 0.00 | 56 | 1006.2 |
| 20260507213013 | 65 | 36 | 1.7 | 2.6 | 0.00 | 0.00 | 0.00 | 60 | 1006.3 |
| 20260507212502 | 65 | 33 | 0.0 | 6.1 | 0.00 | 0.00 | 0.00 | 55 | 1006.2 |
| 20260507212053 | 65 | 39 | 1.7 | 6.1 | 0.00 | 0.00 | 0.00 | 55 | 1006.3 |
| 20260507211514 | 65 | 32 | 0.0 | 4.3 | 0.00 | 0.00 | 0.00 | 57 | 1006.4 |
| 20260507211002 | 65 | 331 | 0.9 | 4.3 | 0.00 | 0.00 | 0.00 | 55 | 1006.4 |
| 20260507210556 | 66 | 9 | 0.0 | 6.1 | 0.00 | 0.00 | 0.00 | 57 | 1006.5 |
| 20260507210007 | 66 | 360 | 3.5 | 6.1 | 0.00 | 0.00 | 0.00 | 59 | 1006.6 |
| 20260507205559 | 66 | 30 | 3.5 | 6.1 | 0.00 | 0.00 | 0.00 | 56 | 1006.6 |
| 20260507205049 | 65 | 42 | 1.7 | 4.3 | 0.00 | 0.00 | 0.00 | 59 | 1006.7 |
| 20260507204504 | 65 | 61 | 0.9 | 5.2 | 0.00 | 0.00 | 0.00 | 60 | 1006.7 |
| 20260507204054 | 65 | 86 | 0.0 | 5.2 | 0.00 | 0.00 | 0.00 | 58 | 1006.8 |
| 20260507203541 | 65 | 18 | 2.6 | 5.2 | 0.00 | 0.00 | 0.00 | 57 | 1006.9 |
| 20260507203027 | 66 | 348 | 2.6 | 5.2 | 0.00 | 0.00 | 0.00 | 57 | 1006.9 |
| 20260507202601 | 65 | 47 | 1.7 | 5.2 | 0.00 | 0.00 | 0.00 | 57 | 1007.1 |
| 20260507202052 | 65 | 75 | 3.5 | 5.2 | 0.00 | 0.00 | 0.00 | 58 | 1007.1 |
| 20260507201507 | 65 | 36 | 1.7 | 5.2 | 0.00 | 0.00 | 0.00 | 57 | 1007.2 |
| 20260507201058 | 65 | 18 | 1.7 | 6.1 | 0.00 | 0.00 | 0.00 | 59 | 1007.2 |
| 20260507200546 | 64 | 46 | 1.7 | 6.1 | 0.00 | 0.00 | 0.00 | 58 | 1007.2 |
| 20260507200007 | 63 | 331 | 1.7 | 6.1 | 0.00 | 0.00 | 0.00 | 61 | 1007.4 |
| 20260507195554 | 63 | 66 | 0.9 | 5.2 | 0.00 | 0.00 | 0.00 | 59 | 1007.5 |
| 20260507195044 | 63 | 60 | 1.7 | 7.8 | 0.00 | 0.00 | 0.00 | 62 | 1007.5 |
| 20260507194504 | 63 | 9 | 1.7 | 7.8 | 0.00 | 0.00 | 0.00 | 62 | 1007.4 |
| 20260507194055 | 63 | 202 | 0.9 | 5.2 | 0.00 | 0.00 | 0.00 | 59 | 1007.5 |
| 20260507193542 | 63 | 169 | 1.7 | 7.0 | 0.00 | 0.00 | 0.00 | 62 | 1007.6 |
| 20260507193011 | 63 | 51 | 2.6 | 5.2 | 0.00 | 0.00 | 0.00 | 63 | 1007.7 |
| 20260507192553 | 62 | 276 | 0.9 | 5.2 | 0.00 | 0.00 | 0.00 | 61 | 1007.7 |
| 20260507192040 | 62 | 38 | 0.9 | 5.2 | 0.00 | 0.00 | 0.00 | 63 | 1007.8 |
| 20260507191501 | 62 | 255 | 1.7 | 7.0 | 0.00 | 0.00 | 0.00 | 63 | 1007.8 |
| 20260507191051 | 61 | 14 | 2.6 | 6.1 | 0.00 | 0.00 | 0.00 | 64 | 1007.8 |
| 20260507190539 | 61 | 313 | 1.7 | 7.0 | 0.00 | 0.00 | 0.00 | 63 | 1007.9 |
| 20260507190059 | 61 | 355 | 3.5 | 7.0 | 0.00 | 0.00 | 0.00 | 63 | 1007.9 |
| 20260507185547 | 60 | 355 | 0.9 | 4.3 | 0.00 | 0.00 | 0.00 | 64 | 1008.0 |
| 20260507185036 | 61 | 360 | 2.6 | 7.0 | 0.00 | 0.00 | 0.00 | 64 | 1008.1 |
| 20260507184559 | 61 | 299 | 1.7 | 7.0 | 0.00 | 0.00 | 0.00 | 64 | 1008.2 |
| 20260507184047 | 61 | 26 | 1.7 | 6.1 | 0.00 | 0.00 | 0.00 | 66 | 1008.2 |
| 20260507183539 | 60 | 50 | 3.5 | 6.1 | 0.00 | 0.00 | 0.00 | 65 | 1008.2 |
| 20260507183059 | 60 | 40 | 2.6 | 4.3 | 0.00 | 0.00 | 0.00 | 65 | 1008.1 |
| 20260507182546 | 59 | 5 | 0.0 | 4.3 | 0.00 | 0.00 | 0.00 | 66 | 1008.2 |
| 20260507182034 | 59 | 58 | 2.6 | 5.2 | 0.00 | 0.00 | 0.00 | 66 | 1008.3 |
| 20260507181503 | 58 | 51 | 1.7 | 5.2 | 0.00 | 0.00 | 0.00 | 68 | 1008.4 |
| 20260507181054 | 58 | 109 | 0.0 | 3.5 | 0.00 | 0.00 | 0.00 | 68 | 1008.5 |
| 20260507180541 | 57 | 53 | 1.7 | 3.5 | 0.00 | 0.00 | 0.00 | 67 | 1008.6 |
| 20260507180103 | 57 | 355 | 0.9 | 3.5 | 0.00 | 0.00 | 0.00 | 67 | 1008.7 |
| 20260507175549 | 57 | 327 | 2.6 | 4.3 | 0.00 | 0.00 | 0.00 | 69 | 1008.6 |
| 20260507175038 | 57 | 42 | 2.6 | 5.2 | 0.00 | 0.00 | 0.00 | 68 | 1008.8 |
| 20260507174604 | 57 | 346 | 2.6 | 5.2 | 0.00 | 0.00 | 0.00 | 70 | 1008.8 |
| 20260507174048 | 57 | 309 | 2.6 | 4.3 | 0.00 | 0.00 | 0.00 | 68 | 1008.8 |
| 20260507173535 | 56 | 355 | 1.7 | 5.2 | 0.00 | 0.00 | 0.00 | 68 | 1008.8 |
| 20260507173013 | 56 | 355 | 2.6 | 5.2 | 0.00 | 0.00 | 0.00 | 70 | 1008.8 |
| 20260507172558 | 56 | 119 | 0.0 | 2.6 | 0.00 | 0.00 | 0.00 | 72 | 1008.9 |
| 20260507172045 | 55 | 28 | 0.9 | 3.5 | 0.00 | 0.00 | 0.00 | 70 | 1008.9 |
| 20260507171505 | 55 | 313 | 0.0 | 4.3 | 0.00 | 0.00 | 0.00 | 69 | 1009.0 |
| 20260507171056 | 55 | 349 | 2.6 | 4.3 | 0.00 | 0.00 | 0.00 | 71 | 1008.9 |
| 20260507170544 | 55 | 120 | 2.6 | 4.3 | 0.00 | 0.00 | 0.00 | 70 | 1008.9 |
| 20260507170002 | 55 | 20 | 0.9 | 5.2 | 0.00 | 0.00 | 0.00 | 69 | 1008.9 |
| 20260507165552 | 55 | 38 | 1.7 | 7.0 | 0.00 | 0.00 | 0.00 | 70 | 1008.9 |
| 20260507165041 | 55 | 13 | 1.7 | 7.0 | 0.00 | 0.00 | 0.00 | 70 | 1009.0 |
| 20260507164502 | 55 | 59 | 2.6 | 7.0 | 0.00 | 0.00 | 0.00 | 71 | 1009.0 |
| 20260507164052 | 54 | 49 | 2.6 | 7.0 | 0.00 | 0.00 | 0.00 | 72 | 1009.0 |
| 20260507163540 | 54 | 61 | 2.6 | 5.2 | 0.00 | 0.00 | 0.00 | 71 | 1009.0 |
| 20260507163009 | 54 | 327 | 3.5 | 6.1 | 0.00 | 0.00 | 0.00 | 71 | 1009.0 |
| 20260507162601 | 54 | 250 | 0.9 | 3.5 | 0.00 | 0.00 | 0.00 | 72 | 1009.0 |
| 20260507162049 | 54 | 276 | 0.9 | 5.2 | 0.00 | 0.00 | 0.00 | 72 | 1009.0 |
| 20260507161509 | 53 | 9 | 2.6 | 5.2 | 0.00 | 0.00 | 0.00 | 72 | 1009.0 |
| 20260507161058 | 53 | 51 | 2.6 | 7.0 | 0.00 | 0.00 | 0.00 | 73 | 1009.0 |
| 20260507160548 | 53 | 16 | 2.6 | 7.0 | 0.00 | 0.00 | 0.00 | 73 | 1009.0 |
| 20260507160004 | 53 | 55 | 1.7 | 4.3 | 0.00 | 0.00 | 0.00 | 74 | 1009.0 |
| 20260507155553 | 52 | 48 | 0.9 | 6.1 | 0.00 | 0.00 | 0.00 | 72 | 1009.1 |
| 20260507155041 | 52 | 346 | 1.7 | 6.1 | 0.00 | 0.00 | 0.00 | 73 | 1009.1 |
| 20260507154511 | 52 | 22 | 1.7 | 6.1 | 0.00 | 0.00 | 0.00 | 73 | 1009.0 |
| 20260507154101 | 52 | 62 | 2.6 | 6.1 | 0.00 | 0.00 | 0.00 | 73 | 1009.0 |
| 20260507153550 | 52 | 28 | 1.7 | 7.0 | 0.00 | 0.00 | 0.00 | 75 | 1009.0 |
| 20260507153008 | 52 | 165 | 0.9 | 7.0 | 0.00 | 0.00 | 0.00 | 74 | 1009.0 |
| 20260507152558 | 52 | 235 | 1.7 | 5.2 | 0.00 | 0.00 | 0.00 | 75 | 1009.0 |
| 20260507152047 | 51 | 315 | 2.6 | 5.2 | 0.00 | 0.00 | 0.00 | 75 | 1009.0 |
| 20260507151516 | 51 | 286 | 0.0 | 5.2 | 0.00 | 0.00 | 0.00 | 76 | 1009.0 |
| 20260507151004 | 51 | 26 | 2.6 | 6.1 | 0.00 | 0.00 | 0.00 | 75 | 1009.0 |
| 20260507150555 | 51 | 298 | 1.7 | 4.3 | 0.00 | 0.00 | 0.00 | 75 | 1009.0 |
| 20260507150013 | 51 | 360 | 1.7 | 4.3 | 0.00 | 0.00 | 0.00 | 76 | 1009.0 |
| 20260507145502 | 50 | 42 | 2.6 | 5.2 | 0.00 | 0.00 | 0.00 | 76 | 1009.0 |
| 20260507145055 | 50 | 89 | 2.6 | 5.2 | 0.00 | 0.00 | 0.00 | 76 | 1009.0 |
| 20260507144515 | 50 | 284 | 0.9 | 4.3 | 0.00 | 0.00 | 0.00 | 76 | 1009.0 |
| 20260507144102 | 50 | 315 | 0.0 | 4.3 | 0.00 | 0.00 | 0.00 | 76 | 1009.0 |
| 20260507143551 | 50 | 250 | 1.7 | 4.3 | 0.00 | 0.00 | 0.00 | 76 | 1009.0 |
| 20260507143010 | 50 | 271 | 1.7 | 5.2 | 0.00 | 0.00 | 0.00 | 76 | 1009.0 |
| 20260507142559 | 50 | 262 | 1.7 | 5.2 | 0.00 | 0.00 | 0.00 | 76 | 1008.9 |
| 20260507142046 | 50 | 79 | 1.7 | 5.2 | 0.00 | 0.00 | 0.00 | 76 | 1008.8 |
| 20260507141508 | 50 | 35 | 0.0 | 2.6 | 0.00 | 0.00 | 0.00 | 76 | 1008.9 |
| 20260507141058 | 50 | 360 | 0.0 | 2.6 | 0.00 | 0.00 | 0.00 | 76 | 1008.8 |
| 20260507140546 | 50 | 22 | 0.9 | 2.6 | 0.00 | 0.00 | 0.00 | 76 | 1008.9 |
| 20260507140012 | 50 | 332 | 0.0 | 3.5 | 0.00 | 0.00 | 0.00 | 76 | 1008.8 |
| 20260507135502 | 50 | 355 | 1.7 | 3.5 | 0.00 | 0.00 | 0.00 | 76 | 1008.7 |
| 20260507135055 | 50 | 34 | 0.9 | 3.5 | 0.00 | 0.00 | 0.00 | 76 | 1008.7 |
| 20260507134510 | 50 | 84 | 0.9 | 3.5 | 0.00 | 0.00 | 0.00 | 76 | 1008.7 |
| 20260507134101 | 50 | 286 | 1.7 | 6.1 | 0.00 | 0.00 | 0.00 | 76 | 1008.7 |
| 20260507133549 | 50 | 281 | 0.0 | 6.1 | 0.00 | 0.00 | 0.00 | 76 | 1008.7 |
| 20260507133010 | 50 | 331 | 0.9 | 2.6 | 0.00 | 0.00 | 0.00 | 76 | 1008.5 |
| 20260507132601 | 50 | 62 | 0.0 | 2.6 | 0.00 | 0.00 | 0.00 | 76 | 1008.6 |
| 20260507132048 | 50 | 306 | 0.9 | 2.6 | 0.00 | 0.00 | 0.00 | 76 | 1008.5 |
| 20260507131518 | 51 | 348 | 0.0 | 2.6 | 0.00 | 0.00 | 0.00 | 76 | 1008.4 |
| 20260507131052 | 50 | 347 | 0.9 | 3.5 | 0.00 | 0.00 | 0.00 | 76 | 1008.4 |
| 20260507130544 | 51 | 19 | 0.9 | 3.5 | 0.00 | 0.00 | 0.00 | 76 | 1008.5 |
| 20260507130110 | 51 | 339 | 0.9 | 2.6 | 0.00 | 0.00 | 0.00 | 76 | 1008.5 |
| 20260507125550 | 51 | 336 | 0.0 | 2.6 | 0.00 | 0.00 | 0.00 | 76 | 1008.4 |
| 20260507125035 | 51 | 336 | 0.9 | 2.6 | 0.00 | 0.00 | 0.00 | 76 | 1008.4 |
| 20260507124505 | 51 | 340 | 0.9 | 2.6 | 0.00 | 0.00 | 0.00 | 76 | 1008.4 |
| 20260507124057 | 51 | 348 | 0.0 | 3.5 | 0.00 | 0.00 | 0.00 | 76 | 1008.4 |
| 20260507123546 | 51 | 348 | 0.9 | 3.5 | 0.00 | 0.00 | 0.00 | 76 | 1008.4 |
| 20260507123005 | 51 | 333 | 0.0 | 3.5 | 0.00 | 0.00 | 0.00 | 76 | 1008.5 |
| 20260507122555 | 51 | 333 | 0.9 | 3.5 | 0.00 | 0.00 | 0.00 | 76 | 1008.5 |
| 20260507122043 | 51 | 355 | 1.7 | 3.5 | 0.00 | 0.00 | 0.00 | 76 | 1008.6 |
| 20260507121505 | 51 | 19 | 1.7 | 3.5 | 0.00 | 0.00 | 0.00 | 76 | 1008.6 |
| 20260507121056 | 51 | 107 | 0.0 | 2.6 | 0.00 | 0.00 | 0.00 | 76 | 1008.6 |
| 20260507120547 | 51 | 342 | 0.0 | 4.3 | 0.00 | 0.00 | 0.00 | 76 | 1008.6 |
| 20260507120005 | 51 | 316 | 0.0 | 2.6 | 0.00 | 0.00 | 0.00 | 76 | 1008.7 |
| 20260507115553 | 51 | 313 | 0.0 | 2.6 | 0.00 | 0.00 | 0.00 | 76 | 1008.8 |
| 20260507115041 | 51 | 319 | 0.9 | 6.1 | 0.00 | 0.00 | 0.00 | 76 | 1008.8 |
| 20260507114512 | 51 | 298 | 1.7 | 6.1 | 0.00 | 0.00 | 0.00 | 76 | 1008.8 |
| 20260507114104 | 51 | 306 | 0.0 | 1.7 | 0.00 | 0.00 | 0.00 | 76 | 1008.8 |
| 20260507113556 | 51 | 306 | 0.0 | 2.6 | 0.00 | 0.00 | 0.00 | 76 | 1008.7 |
| 20260507113012 | 51 | 304 | 0.0 | 2.6 | 0.00 | 0.00 | 0.00 | 76 | 1008.8 |
| 20260507112501 | 51 | 273 | 0.9 | 2.6 | 0.00 | 0.00 | 0.00 | 76 | 1008.8 |
| 20260507112054 | 51 | 263 | 0.9 | 1.7 | 0.00 | 0.00 | 0.00 | 76 | 1008.8 |
| 20260507111512 | 51 | 56 | 0.0 | 1.7 | 0.00 | 0.00 | 0.00 | 76 | 1008.9 |
| 20260507111102 | 52 | 55 | 0.0 | 3.5 | 0.00 | 0.00 | 0.00 | 76 | 1008.9 |
| 20260507110550 | 52 | 56 | 0.9 | 4.3 | 0.00 | 0.00 | 0.00 | 76 | 1008.9 |
| 20260507110008 | 52 | 321 | 1.7 | 4.3 | 0.00 | 0.00 | 0.00 | 76 | 1008.9 |
| 20260507105559 | 52 | 340 | 0.9 | 6.1 | 0.00 | 0.00 | 0.00 | 76 | 1008.9 |
| 20260507105049 | 52 | 312 | 0.0 | 4.3 | 0.00 | 0.00 | 0.00 | 77 | 1009.0 |
| 20260507104505 | 52 | 82 | 0.9 | 4.3 | 0.00 | 0.00 | 0.00 | 76 | 1009.0 |
| 20260507104055 | 52 | 34 | 0.9 | 3.5 | 0.00 | 0.00 | 0.00 | 77 | 1009.0 |
| 20260507103544 | 52 | 46 | 0.0 | 2.6 | 0.00 | 0.00 | 0.00 | 77 | 1009.0 |
| 20260507103003 | 52 | 332 | 0.0 | 3.5 | 0.00 | 0.00 | 0.00 | 77 | 1009.0 |
| 20260507102554 | 52 | 323 | 0.9 | 3.5 | 0.00 | 0.00 | 0.00 | 76 | 1009.1 |
| 20260507102042 | 52 | 313 | 0.9 | 4.3 | 0.00 | 0.00 | 0.00 | 76 | 1009.1 |
| 20260507101503 | 52 | 304 | 0.9 | 4.3 | 0.00 | 0.00 | 0.00 | 76 | 1009.2 |
| 20260507101053 | 52 | 292 | 1.7 | 3.5 | 0.00 | 0.00 | 0.00 | 76 | 1009.1 |
| 20260507100540 | 52 | 355 | 0.9 | 5.2 | 0.00 | 0.00 | 0.00 | 76 | 1009.2 |
| 20260507100113 | 52 | 348 | 1.7 | 5.2 | 0.00 | 0.00 | 0.00 | 76 | 1009.1 |
| 20260507095550 | 52 | 72 | 1.7 | 5.2 | 0.00 | 0.00 | 0.00 | 76 | 1009.3 |
| 20260507095039 | 52 | 14 | 1.7 | 5.2 | 0.00 | 0.00 | 0.00 | 76 | 1009.3 |
| 20260507094600 | 52 | 23 | 1.7 | 4.3 | 0.00 | 0.00 | 0.00 | 76 | 1009.3 |
| 20260507094049 | 52 | 341 | 1.7 | 4.3 | 0.00 | 0.00 | 0.00 | 76 | 1009.3 |
| 20260507093537 | 52 | 334 | 0.0 | 4.3 | 0.00 | 0.00 | 0.00 | 76 | 1009.3 |
| 20260507093100 | 53 | 336 | 1.7 | 4.3 | 0.00 | 0.00 | 0.00 | 76 | 1009.3 |
| 20260507092546 | 53 | 19 | 0.9 | 4.3 | 0.00 | 0.00 | 0.00 | 76 | 1009.4 |
| 20260507092036 | 53 | 325 | 1.7 | 4.3 | 0.00 | 0.00 | 0.00 | 76 | 1009.4 |
| 20260507091559 | 53 | 16 | 1.7 | 4.3 | 0.00 | 0.00 | 0.00 | 76 | 1009.4 |